Location: Demre
(36.2444°N, 29.9850°E)
Time: 05:48:56
(UTC+00:00)

CZ-4B R/B - Pass Details

Date: 11 March 2026
Orbit: 808 x 879 km, 98.9° (Epoch: 21 April)

Event Time Altitude Azimuth Distance (km) Brightness Sun altitude
Exits shadow 18:23:49 48° 6° (N) 1,051 3.7 -28.7°
Drops below altitude 10° 18:27:41 10° 351° (N) 2,414 5.9 -29.4°
Sets 18:30:03 0° 350° (N) 3,357 6.7 -29.9°
